[[{"header":{"parameterUnit":"m.s-1","parameterCategory":1,"la1":30.2992,"la2":30.254,"lo1":-89.0895,"lo2":-89.0443,"dy":0.0025,"dx":0.0025,"nx":19,"ny":19,"refTime":"2026-05-16T09:00:00:Z","depth":0,"parameterNumber":2,"parameterNumberName":"U-component_of_WINDS"},"data":[0,0,0,-2.1008,-2.1007,-2.0945,-2.0945,-2.088,-2.088,0,0,0,0,0,0,0,0,0,0,0,-2.1036,-2.1036,-2.1008,-2.1007,-2.0946,-2.0945,-2.088,-2.088,0,0,0,0,0,0,0,0,0,0,0,-2.1036,-2.1036,-2.1036,-2.1007,-2.0946,-2.0945,-2.088,-2.0921,0,0,0,0,0,0,0,0,0,0,-2.0978,-2.1014,-2.1036,-2.1036,-2.1006,-2.0946,-2.0945,-2.0923,-2.0919,-2.0914,0,-2.0914,0,-2.0896,-2.0876,-2.0876,0,0,0,-2.0999,-2.1018,-2.0993,-2.1036,-2.1006,-2.0946,-2.0971,-2.092,-2.0916,-2.0909,-2.0913,-2.091,-2.0895,-2.0876,-2.0876,-2.088,-2.0881,0,0,-2.1002,-2.103,-2.0996,-2.099,-2.1003,-2.0973,-2.0969,-2.0917,-2.0923,-2.0913,-2.0909,-2.0894,-2.0876,-2.0875,-2.088,-2.088,0,0,0,-2.1017,-2.1032,-2.1008,-2.0993,-2.0981,-2.0971,-2.0967,-2.0926,-2.0916,-2.0908,-2.0893,-2.0875,-2.0875,-2.0879,-2.088,-2.0926,0,0,0,-2.1019,-2.1041,-2.101,-2.1026,-2.0983,-2.0953,-2.0977,-2.0919,-2.0912,-2.0894,-2.0875,-2.0874,-2.0879,-2.088,-2.0924,-2.0942,0,0,0,-2.1036,-2.1043,-2.1038,-2.1028,-2.1003,-2.0953,-2.094,-2.0917,-2.0904,-2.0876,-2.0874,-2.0879,-2.088,-2.0922,-2.0939,-2.0951,0,0,0,-2.1062,-2.1078,-2.1039,-2.1051,-2.1003,-2.0984,-2.094,-2.0923,-2.0905,-2.0875,-2.0879,-2.088,-2.0921,-2.0937,-2.0949,-2.0966,-2.0975,0,0,-2.1098,-2.1084,-2.1089,-2.1052,-2.1046,-2.0991,-2.0991,-2.0947,-2.0918,-2.0894,-2.0894,-2.0925,-2.0939,-2.0951,-2.1023,-2.1032,0,0,0,-2.1109,-2.1113,-2.1105,-2.109,-2.1059,-2.1033,-2.0987,-2.0971,-2.095,-2.0912,-2.0932,-2.094,-2.0946,-2.0952,-2.0959,-2.0961,-2.0885,-2.0885,-2.0884,-2.1196,-2.1161,-2.1167,-2.1125,-2.1111,-2.1064,-2.1049,-2.1019,-2.0986,-2.0991,-2.0983,-2.1032,-2.104,-2.1045,-2.1049,-2.099,-2.099,-2.099,-2.0991,-2.1243,-2.1243,-2.1201,-2.1192,-2.1154,-2.1145,-2.1101,-2.1079,-2.1064,-2.1035,-2.1038,-2.1008,-2.1055,-2.1056,-2.0994,-2.0993,-2.0993,-2.0992,-2.0992,-2.1295,-2.1289,-2.1271,-2.1246,-2.1231,-2.1187,-2.1176,-2.1142,-2.1109,-2.1113,-2.11,-2.1099,-2.1093,-2.111,-2.111,-2.111,-2.111,-2.111,-2.111,-2.1355,-2.1334,-2.1329,-2.1299,-2.1285,-2.1263,-2.1217,-2.1202,-2.1177,-2.1152,-2.1152,-2.1118,-2.1068,-2.1055,-2.1113,-2.1112,-2.1112,-2.1112,-2.1112,-2.1413,-2.1395,-2.1388,-2.1375,-2.1336,-2.1323,-2.1281,-2.1254,-2.1237,-2.1232,-2.1198,-2.1167,-2.1149,-2.1143,-2.1132,-2.1207,-2.1207,-2.1207,-2.1207,-2.1456,-2.1445,-2.143,-2.1411,-2.1388,-2.135,-2.1342,-2.1307,-2.1268,-2.1255,-2.124,-2.1223,-2.1219,-2.1203,-2.1196,-2.1185,-2.1271,-2.1271,-2.1271,-2.1489,-2.1474,-2.1474,-2.1438,-2.1406,-2.1379,-2.137,-2.1348,-2.13,-2.1273,-2.1243,-2.1241,-2.1213,-2.1206,-2.1176,-2.1166,-2.1145,0,0]},{"header":{"parameterUnit":"m.s-1","parameterCategory":1,"la1":30.2992,"la2":30.254,"lo1":-89.0895,"lo2":-89.0443,"dy":0.0025,"dx":0.0025,"nx":19,"ny":19,"refTime":"2026-05-16T09:00:00:Z","depth":0,"parameterNumber":3,"parameterNumberName":"V-component_of_WINDS"},"data":[0,0,0,3.933,3.9329,3.9318,3.9318,3.9316,3.9316,0,0,0,0,0,0,0,0,0,0,0,3.9341,3.9341,3.933,3.9329,3.9318,3.9318,3.9316,3.9316,0,0,0,0,0,0,0,0,0,0,0,3.9341,3.9341,3.9341,3.9329,3.9318,3.9318,3.9316,3.932,0,0,0,0,0,0,0,0,0,0,3.9329,3.9347,3.9341,3.9341,3.9329,3.9318,3.9318,3.932,3.932,3.9327,0,3.9335,0,3.9326,3.9317,3.9317,0,0,0,3.9324,3.9348,3.9337,3.9341,3.9329,3.9318,3.9321,3.932,3.932,3.9327,3.9335,3.9335,3.9326,3.9317,3.9317,3.9378,3.9379,0,0,3.9324,3.9343,3.9338,3.9338,3.934,3.9322,3.9321,3.9319,3.933,3.9335,3.9335,3.9326,3.9317,3.9317,3.9378,3.9378,0,0,0,3.933,3.9344,3.9333,3.9338,3.9335,3.9322,3.9321,3.933,3.9325,3.9334,3.9326,3.9317,3.9317,3.9377,3.9378,3.9424,0,0,0,3.933,3.9347,3.9334,3.9345,3.9335,3.9332,3.9332,3.9325,3.9324,3.9326,3.9317,3.9317,3.9376,3.9377,3.9421,3.9442,0,0,0,3.9339,3.9348,3.9349,3.9346,3.9342,3.9332,3.9327,3.9324,3.9319,3.9317,3.9317,3.9376,3.9377,3.9419,3.9438,3.9464,0,0,0,3.9354,3.939,3.935,3.9388,3.9342,3.9361,3.9326,3.9339,3.9343,3.9317,3.9376,3.9378,3.9418,3.9436,3.9461,3.9488,3.9501,0,0,3.941,3.9398,3.9418,3.9382,3.9412,3.9361,3.9398,3.9383,3.9366,3.9375,3.9376,3.9422,3.9438,3.9463,3.9569,3.9579,0,0,0,3.9442,3.9457,3.9461,3.9465,3.9455,3.9448,3.9426,3.942,3.9428,3.9374,3.9438,3.9447,3.9461,3.9473,3.9482,3.9492,3.9384,3.9384,3.9384,3.9549,3.9525,3.9557,3.9532,3.9536,3.9513,3.9515,3.9503,3.9478,3.9493,3.9496,3.9563,3.9577,3.9584,3.9595,3.9508,3.9508,3.9509,3.9509,3.9629,3.9646,3.9612,3.963,3.9605,3.962,3.96,3.9581,3.9592,3.9559,3.957,3.9535,3.9596,3.9605,3.9512,3.9511,3.9511,3.9511,3.951,3.9696,3.97,3.9693,3.9697,3.9703,3.9676,3.9688,3.9664,3.9642,3.9653,3.9653,3.9652,3.9648,3.9655,3.9655,3.9655,3.9655,3.9655,3.9656,3.9768,3.9758,3.9771,3.9764,3.9764,3.976,3.9738,3.9737,3.973,3.9712,3.9712,3.9685,3.9607,3.9588,3.9659,3.9658,3.9658,3.9658,3.9657,3.9857,3.9833,3.9853,3.9853,3.9843,3.985,3.982,3.982,3.9816,3.9823,3.9794,3.974,3.9726,3.9718,3.9702,3.9799,3.9799,3.9799,3.9799,3.9913,3.9904,3.9919,3.992,3.9919,3.9894,3.9918,3.9901,3.988,3.9876,3.9859,3.9835,3.9829,3.9818,3.9809,3.9793,3.9911,3.9911,3.9911,3.9967,3.9956,3.9981,3.996,3.995,3.9942,3.9964,3.9967,3.9938,3.9915,3.9872,3.9867,3.983,3.9819,3.9794,3.978,3.9751,0,0]}]]